Regional Weather Roundup
Issued by NWS Little Rock, AR

Home | Current Version | Previous Version | Graphics & Text | Print | Product List | Glossary On
Versions: 1 2 3 4 5 6 7 8 9 10 11 12 13 14 15 16 17 18 19 20 21 22 23 24 25 26 27 28 29 30 31 32 33 34 35 36 37 38 39 40 41 42 43 44 45
000
ASUS44 KLZK 290905
RWRLZK

WEATHER ROUNDUP FOR ARKANSAS
NATIONAL WEATHER SERVICE LITTLE ROCK AR
400 AM CDT WED JUL 29 2015

NOTE: "FAIR" INDICATES FEW OR NO CLOUDS BELOW 12,000 FEET WITH NO
SIGNIFICANT WEATHER AND/OR OBSTRUCTIONS TO VISIBILITY.

ARZ001-003-010-029-291000-
NORTHWEST ARKANSAS

CITY           SKY/WX    TMP DP  RH WIND       PRES   REMARKS
FAYETTEVILLE   CLEAR     72  72 100 S5        30.04S
FORT SMITH     CLEAR     80  72  76 CALM      29.99R
HARRISON       CLEAR     78  69  73 CALM      30.04S
BENTONVILLE    CLEAR     75  70  83 CALM      30.05S
ROGERS         CLEAR     78  71  79 S5        30.05S
SILOAM SPGS    CLEAR     75  68  78 CALM      30.03S
HIGHFILL       CLEAR     76  75  97 CALM      30.04S
$$

ARZ004-005-016-291000-
NORTH CENTRAL ARKANSAS

CITY           SKY/WX    TMP DP  RH WIND       PRES   REMARKS
BATESVILLE     CLEAR     79  73  83 CALM      29.98R
FLIPPIN        CLEAR     79  72  78 W3        29.98S
MTN HOME       CLEAR     78  74  87 CALM      30.00S
$$

ARZ040-041-291000-
WEST CENTRAL ARKANSAS

CITY           SKY/WX    TMP DP  RH WIND       PRES   REMARKS
MENA           CLEAR     73  72  94 CALM      30.04R
MOUNT IDA      CLEAR     74  72  93 CALM      30.00S
$$

ARZ009-017-025-026-028-291000-
NORTHEAST ARKANSAS

CITY           SKY/WX    TMP DP  RH WIND       PRES   REMARKS
JONESBORO      CLEAR     80  76  87 SW5       29.96R HX  86
NEWPORT        CLEAR     82  77  85 W3        29.98R HX  90
WALNUT RIDGE   CLEAR     81  75  83 SW6       29.96S HX  86
BLYTHEVILLE    CLEAR     81  80  97 CALM      29.97R HX  91
$$

ARZ022-023-033-042-044-291000-
CENTRAL ARKANSAS

CITY           SKY/WX    TMP DP  RH WIND       PRES   REMARKS
LITTLE ROCK    CLEAR     81  75  82 W7        29.98S HX  87
N LITTLE ROCK    N/A     82  74  78 W3        29.98S HX  88
JACKSONVILLE   CLEAR     77  74  88 CALM      29.98R
SEARCY         CLEAR     76  75  97 CALM      29.99R
HOT SPRINGS    CLEAR     79  73  82 CALM      30.01R
RUSSELLVILLE   CLEAR     76  74  93 CALM      29.99R
CLINTON        LGT RAIN  73  73 100 CALM      30.02R
$$

ARZ036-291000-
EAST ARKANSAS

CITY           SKY/WX    TMP DP  RH WIND       PRES   REMARKS
WEST MEMPHIS   CLEAR     78  77  96 CALM      29.96R
$$

ARZ050-053-066-070-073-291000-
SOUTHWEST ARKANSAS

CITY           SKY/WX    TMP DP  RH WIND       PRES   REMARKS
ARKADELPHIA    FAIR      76  76 100 CALM      29.99S FOG
CAMDEN         CLEAR     75  73  94 CALM      29.98R FOG
TEXARKANA      CLEAR     80  71  74 S6        29.99S
EL DORADO      CLEAR     76  74  93 CALM      29.99S
DE QUEEN       CLEAR     73  73 100 CALM      29.98R FOG
$$

ARZ056-057-069-291000-
SOUTHEAST ARKANSAS

CITY           SKY/WX    TMP DP  RH WIND       PRES   REMARKS
PINE BLUFF     CLEAR     78  75  90 SW3       29.98S
STUTTGART      CLEAR     81  73  78 SW5       29.97S HX  85
MONTICELLO     CLEAR     81  73  76 W5        29.98S HX  86

$$





USA.gov is the U.S. government's official web portal to all federal, state and local government web resources and services.